Millville Municipal Airport

Jump to: basic info | weather | frequencies | runways | comments

Related pages: nearby airports | nearby navaids | notams | map

Basic information (top)

Codes: KMIV MIV
Location: lon 39.367802, lat -75.072197, elev 85 ft / 26 m msl
Status: medium_airport
Scheduled airline service: no
Links: Wikipedia Mobile

Weather (top)

Current conditions (rec'd 2014/10/02 13:54Z):

KMIV 021354Z AUTO 03008KT 10SM OVC017 17/14 A3014

Airport forecast (rec'd 2014/10/02 12:24Z):

TAF KMIV 021120Z 0212/0312 36005KT P6SM SCT012 BKN035 
      TEMPO 0212/0214 BKN012 
     FM021600 03008KT P6SM BKN040 
     FM022200 05005KT P6SM SCT045 
     FM031000 VRB03KT 5SM BR SCT005 SCT015

Frequencies (top)

Verify before use: may be inaccurate or out of date.

A/D: 124.6 MHz (APP/DEP)
ASOS: 128.125 MHz (ASOS)
CTAF: 123.65 MHz (CTAF)
RDO: 123.65 MHz (RDO)
UNIC: 123 MHz (UNICOM)

Runways (top)

10/28: 6,002 x 150 ft (1,829 x 46 m) — paved — lighted

14/32: 5,057 x 150 ft (1,541 x 46 m) — paved — lighted

Latest comments (top)

No comments yet for Millville Municipal Airport

More... (top)

See also NOTAMs and nearby airports and navaids, or visit the Millville Municipal Airport page at the main OurAirports website..